Location: Devargunta
(16.7631°N, 80.9077°E)
Time: 19:24:00
(UTC+00:00)

ADEOS Rocket - Pass Details

Date: 19 January 2021
Orbit: 858 x 1307 km, 98.7° (Epoch: 03 March)

Event Time Altitude Azimuth Distance (km) Brightness Sun altitude
Rises 23:05:17 0° 188° (S) 4,267 6.4 -29.1°
Reaches altitude 10° 23:08:14 10° 196° (SSW) 3,313 5.7 -28.4°
Enters shadow 23:12:51 30° 226° (SW) 2,136 4.5 -27.4°
